NOAA NWS Hourly Roundups by Site

Regional Weather Roundup for Bismarck, ND

To Select Another Site Choose from List

Select Site:  

000
ASUS43 KBIS 110310
RWRBIS

NWR BROADCAST TEXT
NATIONAL WEATHER SERVICE BISMARCK ND
1000 PM CDT FRI JUL 10 2020

NOTE: "FAIR" INDICATES FEW OR NO CLOUDS BELOW 12,000 FEET WITH NO
SIGNIFICANT WEATHER AND/OR OBSTRUCTIONS TO VISIBILITY.


CITY           SKY/WX    TMP DP  RH WIND       PRES   REMARKS
WILLISTON      FAIR      60  54  80 W16       30.02S
MINOT          PTCLDY    66  59  78 E8        29.94R
MINOT AFB      PTCLDY    67  61  79 SE7       29.92R
BISMARCK       PTCLDY    71  64  78 SW3       29.96F
DICKINSON      PTCLDY    65  60  84 W8        30.03R
GARRISON         N/A     67  62  84 CALM      29.97R
HETTINGER ARPT CLEAR     63  59  87 NW8       30.04F
JAMESTOWN      CLOUDY    72  60  66 E7        29.95F
CARRINGTON     FAIR      72  59  64 CALM      29.99F
HAZEN          FAIR      66  64  94 S5        29.99R
MANDAN         FAIR      66  66 100 SW6       29.99R
OAKES          FAIR      70  70 100 S5        29.99S
RUGBY          FAIR      66  61  82 S7        29.95R
STANLEY        RAIN      61  61 100 NW9G17    30.00R
TIOGA          DRIZZLE   61  61 100 W13       30.00F
WATFORD CITY   MOCLDY    68  59  73 NW14      30.01R
$$

CITY           SKY/WX    TMP DP  RH WIND       PRES   REMARKS
GRAND FORKS    LGT RAIN  73  62  68 E3        29.94S
GRAND FORKS AF PTCLDY    69  65  86 CALM      29.96R
DEVILS LAKE    MOCLDY    71  58  63 S7        29.98R
FARGO          PTCLDY    73  58  59 W5        29.95S
CANDO          FAIR      66  66 100 SE6       29.97F
CAVALIER       FAIR      70  63  78 CALM      29.95R
GRAFTON        FAIR      70  64  83 CALM      29.97R
GWINNER        CLEAR     72  68  88 CALM      29.98F
LANGDON        FAIR      64  64 100 SW3       29.99R
ROLLA          FAIR      66  61  82 E6        29.97F
WALHALLA       MOCLDY    68  68 100 CALM      29.96R
$$

CITY           SKY/WX    TMP DP  RH WIND       PRES   REMARKS
ABERDEEN       LGT RAIN  76  66  71 N9        29.98R
MOBRIDGE       PTCLDY    68  60  75 E14G23    29.93F
BUFFALO          N/A     74  53  48 N17       30.04R
RAPID CITY     CLEAR     66  58  75 NW8       30.03R
GLASGOW        CLEAR     68  52  56 CALM      30.05R
SIDNEY         CLEAR     66  54  65 NW10      30.05R
WOLF POINT     CLEAR     64  53  67 SW5       30.06S
GLENDIVE       CLEAR     64  53  67 NW7       30.09R
MILES CITY     CLEAR     70  48  45 NW8       30.10R
BAKER          CLEAR     67  53  61 NW12      30.11R
$$

CITY           SKY/WX    TMP DP  RH WIND       PRES   REMARKS
BILLINGS       PTCLDY    72  49  44 E10       30.15R
GREAT FALLS    CLEAR     67  44  43 W7        30.15S
REGINA         TSTM      59  57  94 NW9       29.98F FOG
ESTEVAN        CLOUDY    63  59  88 SW7       29.95S
$$




 

View Past Reports for Bismarck, ND.

Products Courtesy of NOAA-NWS
NWS Information Parsing Script by Ken True at Saratoga Weather - Script by SE Lincoln Weather.